Location: Unspecified
(0.0000°N, 0.0000°E)
Time: 18:53:48
(UTC+00:00)

Vanguard 1 - Pass Details

Date: 21 November 2019
Orbit: 652 x 3831 km, 34.2° (Epoch: 05 December)

Event Time Altitude Azimuth Distance (km) Brightness Sun altitude
Rises 20:13:42 0° 267° (W) 3,806 14.0 -34.4°
Reaches altitude 10° 20:16:32 10° 253° (WSW) 3,172 13.4 -35.0°
Maximum altitude 20:22:58 25° 200° (SSW) 2,932 12.7 -36.5°
Drops below altitude 10° 20:33:00 10° 151° (SSE) 5,084 13.6 -38.8°
Sets 20:39:19 0° 139° (SE) 6,712 14.2 -40.2°
